RYR45MF LOWW-LFML

Flight info

Callsign RYR45MF
Flight time N/A
Altitude 34000
Route OSPEN DCT ABRUK DCT SETAL DCT DETSA/N0433F350 DCT LAGEN/N0355F230 DCT ENOBA DCT ASBOP DCT BORDI DCT PIGOS DCT STP/N0331F180 A3 RUBIT G7 LANKO
Aircraft B738/M-SDE2E3FGHIRWXY/LB1

Departure

Time 2026-04-20 18:49
Airport Vienna International Airport (LOWW)

Arrival

Time N/A
Airport Marseille Provence Airport (LFML)
Time Latitude Longitude Altitude Speed Heading
2026-04-20 18:28 48.12012 16.55424 608 ft 0 kts 296°
2026-04-20 18:43 48.12013 16.55420 608 ft 1 kts 296°
2026-04-20 18:44 48.12021 16.55394 615 ft 4 kts 295°
2026-04-20 18:44 48.12013 16.55351 620 ft 5 kts 224°
2026-04-20 18:44 48.11985 16.55327 617 ft 5 kts 202°
2026-04-20 18:44 48.11954 16.55308 608 ft 5 kts 192°
2026-04-20 18:45 48.11920 16.55341 610 ft 8 kts 124°
2026-04-20 18:45 48.11878 16.55421 612 ft 11 kts 153°
2026-04-20 18:45 48.11802 16.55461 615 ft 14 kts 128°
2026-04-20 18:45 48.11754 16.55599 617 ft 16 kts 117°
2026-04-20 18:46 48.11705 16.55742 610 ft 15 kts 117°
2026-04-20 18:46 48.11661 16.55882 608 ft 15 kts 116°
2026-04-20 18:46 48.11617 16.56015 617 ft 14 kts 117°
2026-04-20 18:46 48.11574 16.56142 612 ft 13 kts 117°
2026-04-20 18:47 48.11534 16.56261 621 ft 13 kts 116°
2026-04-20 18:47 48.11497 16.56383 608 ft 13 kts 115°
2026-04-20 18:47 48.11449 16.56527 622 ft 17 kts 117°
2026-04-20 18:47 48.11395 16.56687 617 ft 17 kts 116°
2026-04-20 18:48 48.11312 16.56746 608 ft 16 kts 229°
2026-04-20 18:48 48.11294 16.56584 610 ft 16 kts 268°
2026-04-20 18:48 48.11284 16.56427 619 ft 15 kts 274°
2026-04-20 18:48 48.11345 16.56221 613 ft 29 kts 296°
2026-04-20 18:49 48.11516 16.55687 609 ft 101 kts 296°
2026-04-20 18:49 48.11955 16.54368 722 ft 171 kts 297°
2026-04-20 18:49 48.12478 16.52645 1540 ft 196 kts 287°
2026-04-20 18:49 48.12497 16.50516 2107 ft 214 kts 258°
2026-04-20 18:50 48.11819 16.48482 2690 ft 226 kts 231°
2026-04-20 18:50 48.10535 16.47136 3298 ft 236 kts 201°
2026-04-20 18:50 48.08859 16.46879 3960 ft 245 kts 174°
2026-04-20 18:50 48.07142 16.46634 4601 ft 255 kts 207°
2026-04-20 18:51 48.05749 16.45037 5346 ft 254 kts 226°
2026-04-20 18:51 48.04464 16.43207 6024 ft 258 kts 225°
2026-04-20 18:51 48.03156 16.41366 6700 ft 258 kts 229°
2026-04-20 18:51 48.02217 16.39048 7317 ft 267 kts 250°
2026-04-20 18:52 48.01543 16.36436 8130 ft 272 kts 251°
2026-04-20 18:52 48.00877 16.33815 9025 ft 274 kts 251°
2026-04-20 18:52 48.00191 16.31149 9943 ft 275 kts 251°
2026-04-20 18:52 47.99489 16.28459 10670 ft 286 kts 251°
2026-04-20 18:53 47.98718 16.25536 10975 ft 309 kts 250°
2026-04-20 18:53 47.97912 16.22520 11646 ft 317 kts 250°
2026-04-20 18:53 47.97085 16.19463 12536 ft 317 kts 250°
2026-04-20 18:53 47.96267 16.16461 13370 ft 319 kts 250°
2026-04-20 18:54 47.95419 16.13363 14078 ft 324 kts 250°
2026-04-20 18:54 47.94547 16.10188 14837 ft 328 kts 250°
2026-04-20 18:54 47.93674 16.07021 15571 ft 332 kts 250°
2026-04-20 18:54 47.92794 16.03837 16312 ft 335 kts 250°
2026-04-20 18:55 47.91901 16.00611 16986 ft 339 kts 250°
2026-04-20 18:55 47.90994 15.97340 17666 ft 342 kts 250°
2026-04-20 18:55 47.90078 15.94048 18319 ft 346 kts 250°
2026-04-20 18:55 47.89154 15.90726 19006 ft 348 kts 250°
2026-04-20 18:56 47.88224 15.87389 19695 ft 350 kts 250°
2026-04-20 18:56 47.87286 15.84030 20366 ft 352 kts 250°
2026-04-20 18:56 47.86342 15.80653 20999 ft 354 kts 250°
2026-04-20 18:56 47.85406 15.77308 21636 ft 356 kts 251°
2026-04-20 18:57 47.84437 15.73850 22240 ft 358 kts 251°
2026-04-20 18:57 47.83475 15.70421 22838 ft 360 kts 251°
2026-04-20 18:57 47.82518 15.67018 23412 ft 361 kts 251°
2026-04-20 18:57 47.81546 15.63562 23958 ft 364 kts 251°
2026-04-20 18:58 47.80566 15.60085 24507 ft 366 kts 251°
2026-04-20 18:58 47.79577 15.56585 25033 ft 368 kts 251°
2026-04-20 18:58 47.78584 15.53074 25564 ft 370 kts 251°
2026-04-20 18:58 47.77584 15.49539 26029 ft 372 kts 251°
2026-04-20 18:59 47.76576 15.45982 26470 ft 375 kts 251°
2026-04-20 18:59 47.75558 15.42391 26765 ft 382 kts 251°
2026-04-20 18:59 47.74512 15.38701 26847 ft 393 kts 252°
2026-04-20 18:59 47.73437 15.34936 27143 ft 397 kts 251°
2026-04-20 19:00 47.72359 15.31165 27657 ft 396 kts 252°
2026-04-20 19:00 47.71280 15.27395 28043 ft 398 kts 252°
2026-04-20 19:00 47.70195 15.23603 28421 ft 400 kts 252°
2026-04-20 19:00 47.69471 15.21087 28687 ft 401 kts 252°
2026-04-20 19:01 47.68362 15.17230 29173 ft 400 kts 252°
2026-04-20 19:01 47.67272 15.13462 29789 ft 395 kts 252°
2026-04-20 19:01 47.66200 15.09738 30363 ft 392 kts 253°
2026-04-20 19:01 47.65133 15.06027 30800 ft 391 kts 252°
2026-04-20 19:02 47.64061 15.02302 31151 ft 393 kts 253°
2026-04-20 19:02 47.62986 14.98570 31470 ft 395 kts 253°
2026-04-20 19:02 47.61904 14.94830 31849 ft 394 kts 253°
2026-04-20 19:02 47.60946 14.91807 34083 ft 309 kts 250°
2026-04-20 19:03 47.59939 14.88937 33814 ft 321 kts 251°
2026-04-20 19:03 47.59000 14.85825 33438 ft 338 kts 255°
2026-04-20 19:03 47.58181 14.82470 33143 ft 346 kts 257°
2026-04-20 19:03 47.57415 14.79089 33582 ft 345 kts 258°
2026-04-20 19:04 47.56650 14.75685 33704 ft 354 kts 253°
2026-04-20 19:04 47.55613 14.72351 33710 ft 366 kts 250°
2026-04-20 19:04 47.54465 14.69011 34257 ft 358 kts 250°
2026-04-20 19:04 47.53362 14.65680 34281 ft 359 kts 252°
2026-04-20 19:05 47.51327 14.58765 34282 ft 374 kts 253°
2026-04-20 19:05 47.50296 14.55169 34081 ft 386 kts 253°
2026-04-20 19:05 47.49237 14.51514 34271 ft 387 kts 252°
2026-04-20 19:06 47.47102 14.44094 34138 ft 394 kts 252°
2026-04-20 19:06 47.46031 14.40417 34400 ft 391 kts 252°
2026-04-20 19:06 47.44931 14.36699 34416 ft 397 kts 252°
2026-04-20 19:07 47.43815 14.32923 34140 ft 406 kts 252°
2026-04-20 19:07 47.42764 14.29066 33987 ft 406 kts 255°
2026-04-20 19:07 47.41760 14.25243 34200 ft 399 kts 255°
2026-04-20 19:07 47.40700 14.21418 34213 ft 400 kts 251°
2026-04-20 19:08 47.39522 14.17696 34603 ft 397 kts 249°
2026-04-20 19:08 47.37056 14.10090 34018 ft 421 kts 251°
2026-04-20 19:09 47.34629 14.02376 33994 ft 408 kts 251°
2026-04-20 19:09 47.32303 13.94793 34144 ft 406 kts 252°
2026-04-20 19:10 47.29974 13.87183 33785 ft 413 kts 252°
2026-04-20 19:10 47.28817 13.83334 33929 ft 409 kts 252°
2026-04-20 19:10 47.27667 13.79518 34050 ft 408 kts 252°
2026-04-20 19:11 47.25316 13.71894 34174 ft 411 kts 247°
2026-04-20 19:11 47.23991 13.68157 34068 ft 412 kts 255°
2026-04-20 19:11 47.23119 13.64168 34149 ft 410 kts 257°
2026-04-20 19:12 47.20927 13.56426 34064 ft 405 kts 250°
2026-04-20 19:12 47.19656 13.52800 34259 ft 389 kts 249°
2026-04-20 19:12 47.18371 13.49223 33962 ft 399 kts 248°
2026-04-20 19:13 47.15938 13.41820 34059 ft 404 kts 250°
2026-04-20 19:13 47.13508 13.34369 34469 ft 375 kts 249°
2026-04-20 19:13 47.12291 13.30857 33907 ft 397 kts 251°
2026-04-20 19:14 47.11195 13.27142 33993 ft 395 kts 253°
2026-04-20 19:14 47.10174 13.23411 34230 ft 393 kts 255°
2026-04-20 19:14 47.09196 13.19631 34155 ft 400 kts 255°
2026-04-20 19:14 47.08225 13.15829 33948 ft 405 kts 255°
2026-04-20 19:15 47.07248 13.11983 33989 ft 400 kts 255°
2026-04-20 19:15 47.06240 13.08211 34131 ft 395 kts 253°
2026-04-20 19:15 47.05173 13.04551 34514 ft 391 kts 252°
2026-04-20 19:15 47.04096 13.00979 34808 ft 383 kts 251°
2026-04-20 19:16 47.02903 12.97356 33917 ft 397 kts 248°
2026-04-20 19:16 47.01616 12.93869 34176 ft 388 kts 248°
2026-04-20 19:16 47.00334 12.90333 34072 ft 396 kts 249°
2026-04-20 19:17 46.97857 12.83058 34142 ft 404 kts 250°
2026-04-20 19:17 46.95447 12.75556 34022 ft 408 kts 251°
2026-04-20 19:18 46.93066 12.68038 34050 ft 406 kts 251°
2026-04-20 19:18 46.90688 12.60545 34028 ft 406 kts 251°
2026-04-20 19:19 46.88314 12.53089 34018 ft 404 kts 251°
2026-04-20 19:19 46.85930 12.45613 34029 ft 402 kts 251°
2026-04-20 19:20 46.83569 12.38266 34022 ft 402 kts 251°
2026-04-20 19:20 46.82106 12.33711 33992 ft 400 kts 251°
2026-04-20 19:21 46.81693 12.32430 34224 ft 390 kts 250°
2026-04-20 19:21 46.80479 12.28893 34488 ft 392 kts 246°
2026-04-20 19:21 46.78995 12.25846 35864 ft 338 kts 238°
2026-04-20 19:22 46.77521 12.23147 35371 ft 328 kts 241°
2026-04-20 19:22 46.76646 12.21454 36393 ft 293 kts 242°
2026-04-20 19:23 46.75429 12.19140 36272 ft 301 kts 237°
2026-04-20 19:23 46.74041 12.16828 36085 ft 298 kts 237°
2026-04-20 19:24 46.72612 12.14458 34698 ft 339 kts 236°
2026-04-20 19:24 46.70840 12.11576 32395 ft 417 kts 235°
2026-04-20 19:24 46.68871 12.08467 32137 ft 412 kts 235°
2026-04-20 19:24 46.66924 12.05398 31601 ft 415 kts 235°
2026-04-20 19:25 46.64980 12.02288 31173 ft 415 kts 236°
2026-04-20 19:25 46.61127 11.95994 31032 ft 417 kts 236°
2026-04-20 19:26 46.57326 11.89710 31014 ft 415 kts 236°
2026-04-20 19:26 46.53522 11.83404 31026 ft 415 kts 236°
2026-04-20 19:27 46.49717 11.77101 31020 ft 414 kts 236°
2026-04-20 19:27 46.47825 11.73978 31325 ft 411 kts 236°
2026-04-20 19:27 46.45919 11.70886 31609 ft 413 kts 232°
2026-04-20 19:27 46.43708 11.68158 31906 ft 420 kts 225°
2026-04-20 19:28 46.41340 11.65624 31958 ft 427 kts 224°
2026-04-20 19:28 46.38915 11.63126 32097 ft 427 kts 223°
2026-04-20 19:28 46.36498 11.60684 32597 ft 422 kts 221°
2026-04-20 19:28 46.33823 11.58817 33045 ft 434 kts 204°
2026-04-20 19:29 46.30798 11.58180 33532 ft 446 kts 186°
2026-04-20 19:29 46.27705 11.58857 33979 ft 459 kts 170°
2026-04-20 19:29 46.24726 11.60761 33966 ft 480 kts 152°
2026-04-20 19:29 46.22117 11.63880 33980 ft 496 kts 135°
2026-04-20 19:30 46.20116 11.67984 33995 ft 506 kts 118°
2026-04-20 19:30 46.18895 11.72776 33998 ft 513 kts 101°
2026-04-20 19:30 46.18562 11.77884 33996 ft 512 kts 84°
2026-04-20 19:30 46.19140 11.82892 33987 ft 502 kts 67°
2026-04-20 19:31 46.20570 11.87408 33991 ft 488 kts 50°
2026-04-20 19:31 46.22715 11.91091 34005 ft 473 kts 33°
2026-04-20 19:31 46.25284 11.93964 33992 ft 465 kts 26°
2026-04-20 19:32 46.30676 11.99068 34431 ft 460 kts 24°
2026-04-20 19:32 46.33340 12.01600 34798 ft 460 kts 30°
2026-04-20 19:32 46.35654 12.04896 34860 ft 477 kts 47°
2026-04-20 19:32 46.37397 12.09041 34979 ft 487 kts 57°
2026-04-20 19:33 46.38910 12.13474 34999 ft 493 kts 59°
2026-04-20 19:33 46.41797 12.22493 34978 ft 494 kts 60°
2026-04-20 19:34 46.44631 12.31497 35007 ft 494 kts 60°
2026-04-20 19:34 46.47475 12.40585 34981 ft 495 kts 60°
2026-04-20 19:35 46.50307 12.49651 35008 ft 493 kts 60°
2026-04-20 19:35 46.53138 12.58723 35000 ft 493 kts 60°
2026-04-20 19:36 46.55960 12.67777 34985 ft 491 kts 60°